Location: ???? ???? ?????
(31.2680°N, 31.7283°E)
Time: 04:08:36
(UTC+00:00)

Cosmos 1825 - Pass Details

Date: 13 July 2020
Orbit: 502 x 509 km, 82.5° (Epoch: 11 August)

Event Time Altitude Azimuth Distance (km) Brightness Sun altitude
Exits shadow 19:32:06 21° 25° (NNE) 1,203 4.3 -26.4°
Drops below altitude 10° 19:33:28 10° 18° (NNE) 1,728 5.2 -26.6°
Sets 19:35:38 0° 13° (NNE) 2,618 6.3 -26.9°
